Wind_Speed
2 3 2 2 1 1 2 2 3 4 4 5 7 6 6 5 5 6 7 6 4 2 4 7 9 9 7 6 6 6 5 6 7 7 8 9 9 10 10 10 9 9 9 9
3 1 2 1 3 5 3 2 3 1 2 3 6 7 6 5 4 4 5 6 4 2 6 10 12 12 11 10 9 9 9 9 10 11 13 14 15 15 15 15 15 15 14 14
3 4 2 3 2 0 1 2 5 2 5 4 4 7 8 4 3 6 6 6 5 6 10 14 16 16 15 12 11 11 12 11 13 14 14 14 14 16 17 18 18 18 18 19
1 3 3 4 3 3 1 3 4 2 3 9 11 15 10 7 5 7 9 9 9 11 14 17 17 17 17 16 14 13 13 14 14 16 16 16 15 16 16 17 18 19 19 20
2 1 2 3 5 4 2 3 2 2 5 6 6 6 7 9 7 7 9 11 13 16 18 18 17 17 17 16 15 14 13 16 18 20 20 19 19 18 18 18 18 19 19 20
2 3 2 4 6 7 2 3 8 2 3 8 9 2 4 9 11 9 10 13 15 17 17 17 16 17 17 16 16 14 15 15 17 20 23 24 23 23 22 22 21 21 21 20
2 2 2 4 12 11 4 4 15 7 8 11 5 11 3 6 8 11 13 14 16 17 17 17 17 18 17 16 15 16 16 15 15 16 19 21 23 24 25 25 26 25 26 24
1 4 1 13 6 4 4 10 14 15 12 14 21 14 11 12 13 14 15 16 17 19 19 17 18 19 18 16 16 16 16 16 15 15 15 16 19 20 22 23 25 26 28 29
4 2 5 11 6 8 6 14 17 19 17 17 17 20 19 18 16 16 17 18 19 20 21 17 17 18 19 16 16 16 16 15 14 15 14 15 16 17 19 20 22 24 26 28
4 4 11 13 13 12 21 24 26 27 25 21 23 24 24 22 22 21 20 20 21 22 22 20 16 18 19 17 16 17 16 14 14 14 13 13 15 17 18 18 19 22 24 25
3 6 15 3 26 31 34 33 30 21 20 27 28 30 27 26 23 22 22 22 22 23 23 21 18 17 16 16 17 17 16 15 14 15 15 15 15 16 17 17 19 20 21 21
3 10 7 23 36 38 33 26 22 33 33 26 24 25 24 24 22 23 23 23 24 23 23 20 19 17 14 15 16 16 15 15 14 16 16 17 19 19 15 17 18 18 20 23
6 21 26 37 34 24 29 40 31 27 25 23 19 21 22 23 21 22 24 25 23 20 19 19 18 17 13 14 16 15 14 13 13 14 15 17 18 20 24 18 18 18 17 17
19 30 28 21 33 34 31 29 29 27 25 23 24 22 23 25 24 24 23 19 18 19 18 17 18 17 12 14 15 13 13 12 12 14 14 17 20 20 21 23 25 20 15 16
37 34 32 31 34 35 32 29 28 28 25 24 22 24 25 26 25 21 17 16 18 19 19 18 17 16 12 15 16 13 13 12 13 13 15 17 18 20 21 22 22 23 19 16
38 33 30 34 36 35 33 32 29 29 27 25 25 23 21 20 20 18 17 17 18 19 17 17 17 13 13 15 16 16 14 15 15 13 15 17 19 19 18 16 19 19 19 20
34 33 36 34 32 32 29 28 29 32 28 25 26 22 20 19 18 18 17 16 18 19 17 17 16 14 14 13 15 16 15 15 13 13 15 17 18 17 16 17 17 17 18 18
29 28 28 30 32 32 33 32 29 27 26 25 23 19 18 17 17 16 16 16 17 17 16 15 14 14 12 13 14 12 13 12 11 13 15 16 16 15 16 16 16 15 17 16
29 28 29 30 29 30 30 29 27 25 23 21 20 18 15 14 15 15 14 14 14 15 11 11 13 12 13 13 12 12 10 10 10 10 11 13 12 11 11 11 13 14 13 14
28 27 28 27 26 26 27 26 25 24 21 18 16 15 14 13 12 12 11 12 12 11 11 9 8 10 11 11 11 13 14 12 9 9 10 11 12 12 12 13 13 13 13 13
28 28 27 28 30 28 24 24 23 23 21 17 14 13 12 11 11 9 10 11 9 9 7 5 7 10 11 11 11 11 10 12 11 12 13 14 15 14 14 14 14 14 13 13
28 28 27 28 30 26 23 24 23 21 19 17 14 11 10 8 8 8 7 8 7 6 5 4 5 5 8 10 11 12 13 12 13 16 19 20 22 21 18 16 14 13 12 11
26 26 27 28 25 24 23 23 23 23 20 17 15 12 9 9 8 7 8 7 6 6 8 8 6 10 9 5 5 7 11 14 17 20 21 20 19 17 16 14 13 13 11 10
24 23 26 25 24 25 26 27 25 20 18 17 14 12 11 10 8 7 7 6 5 6 6 5 6 2 6 8 10 12 14 17 17 15 15 14 13 12 12 11 11 11 11 9
23 23 26 25 26 26 28 26 27 22 18 18 15 12 11 9 9 9 9 8 7 9 9 8 6 9 14 14 14 13 12 12 12 14 13 13 12 12 10 10 10 10 10 8
25 23 25 20 25 26 25 24 23 21 20 17 16 18 15 12 10 10 10 8 9 9 11 10 9 10 11 11 11 10 12 13 13 13 13 11 10 10 10 9 9 9 8 8
25 21 24 23 27 29 23 19 19 20 18 20 18 15 13 11 9 10 10 10 9 9 9 9 9 9 9 10 10 11 12 11 11 11 11 10 10 9 9 9 8 8 8 8
Wind_Direction
256 233 194 200 359 78 88 202 142 266 185 219 175 162 162 155 135 149 172 168 147 60 26 9 351 338 328 319 309 293 286 273 256 252 252 252 253 259 263 267 273 280 284 279
350 264 209 94 79 103 114 150 69 186 301 206 144 161 176 176 185 180 178 191 199 288 327 332 332 329 317 299 287 278 270 269 269 266 263 263 265 268 270 271 272 272 273 274
295 342 344 29 297 225 235 197 155 132 224 161 160 197 211 218 252 205 200 196 229 289 311 318 318 316 312 303 293 280 269 263 262 266 266 265 265 266 267 268 269 270 268 268
255 7 43 258 270 261 271 230 207 268 202 176 188 194 210 225 222 210 215 227 255 282 296 302 302 300 299 300 296 285 270 259 261 263 267 270 270 269 267 268 269 269 268 267
95 175 272 33 356 359 55 318 195 248 147 201 177 186 236 222 229 230 242 261 278 291 298 300 299 296 294 295 294 290 277 262 255 259 263 266 269 271 272 271 269 269 268 267
36 85 58 256 311 343 313 24 354 340 186 170 156 160 243 220 233 246 264 280 291 296 300 300 297 293 293 294 293 290 282 274 266 262 264 267 269 270 271 272 272 269 267 268
10 77 5 320 312 320 59 267 329 322 263 206 203 219 246 227 239 261 274 282 291 297 299 299 295 291 291 291 293 289 289 287 283 277 273 272 271 271 271 269 269 269 269 266
48 56 356 1 12 81 276 334 331 324 307 259 244 248 257 262 268 275 280 287 291 294 296 294 290 288 288 289 287 287 288 291 292 289 285 283 279 276 275 274 272 270 269 266
149 186 299 326 300 314 335 336 339 316 308 297 279 267 269 271 274 279 282 284 288 291 292 291 285 282 283 287 284 285 287 289 292 293 294 291 288 285 282 279 277 276 273 272
48 283 318 346 31 351 323 317 315 307 300 298 295 286 275 272 279 281 281 282 285 286 288 288 280 277 281 282 281 284 286 289 293 295 296 295 295 296 293 288 282 278 276 276
266 295 332 198 324 325 317 309 312 305 297 291 290 282 278 280 283 282 281 283 284 285 285 284 279 275 275 276 277 280 284 290 292 295 298 299 297 297 295 293 291 288 284 283
256 328 301 294 315 316 311 310 307 305 300 295 285 281 278 277 281 283 283 283 283 282 281 280 277 276 272 271 273 277 283 289 292 296 301 303 304 297 290 298 294 282 277 275
295 321 311 307 309 316 307 308 311 304 298 289 284 284 279 281 282 282 282 283 282 279 271 274 277 276 271 268 269 276 284 288 292 297 305 308 308 306 306 295 296 293 285 276
334 326 314 314 313 318 319 312 308 302 297 288 284 280 283 285 285 283 281 281 271 269 271 275 276 276 271 263 262 272 281 291 299 307 308 309 308 305 303 304 306 300 287 285
327 325 314 317 320 320 320 318 312 307 302 297 290 288 285 283 281 281 277 267 266 267 274 279 275 276 269 258 256 262 271 284 294 295 301 311 313 308 305 304 304 304 301 293
326 326 323 319 322 324 324 322 316 314 312 307 302 297 292 284 280 275 270 265 267 272 277 274 272 278 270 261 253 256 267 285 291 285 303 311 314 310 308 308 308 303 300 305
332 328 326 322 322 320 318 315 309 309 309 301 303 302 293 285 278 273 273 272 273 276 275 272 275 270 268 263 254 256 269 282 275 281 299 308 311 308 303 297 305 305 304 306
334 326 324 323 322 322 321 323 322 317 312 308 305 298 289 283 281 279 277 277 274 275 277 279 273 270 265 252 250 257 276 277 272 289 301 310 310 309 312 300 299 298 300 300
336 331 331 331 331 330 330 330 329 323 315 311 307 300 291 281 282 284 282 276 275 279 285 273 268 263 251 254 259 266 267 268 275 291 306 321 315 311 313 313 297 284 294 300
339 339 340 343 346 346 342 342 338 335 330 319 312 305 297 294 290 288 283 281 285 286 285 281 261 253 253 257 260 253 254 248 266 287 297 314 331 327 317 311 309 302 290 295
344 348 350 351 348 346 348 349 348 347 345 339 324 315 309 303 300 296 292 296 305 293 287 282 267 270 274 277 260 238 249 247 261 283 293 299 307 318 326 314 310 305 298 295
351 353 354 354 346 350 357 4 4 358 354 351 347 338 327 328 326 316 311 314 322 311 290 273 271 280 298 273 254 261 267 262 269 285 294 297 296 294 298 311 308 307 298 292
357 358 358 354 352 356 359 5 1 3 2 0 357 349 343 338 335 334 334 340 8 10 322 296 318 319 257 295 231 249 270 278 283 288 291 292 287 283 276 287 300 301 297 287
356 359 360 356 359 4 5 2 355 356 7 7 7 4 3 358 352 347 339 333 326 340 310 332 345 342 245 261 272 281 285 286 287 286 288 289 287 281 275 278 289 291 290 288
2 0 356 356 3 2 1 358 355 360 0 5 7 9 2 354 344 344 329 324 319 312 309 310 299 291 290 290 288 288 287 288 290 288 289 289 282 272 274 274 277 279 278 282
4 3 356 3 7 359 351 355 355 9 2 7 10 357 351 350 345 337 338 331 323 312 311 312 315 303 301 304 299 295 292 293 292 290 283 285 283 275 264 269 270 270 272 274
10 4 356 9 12 357 2 353 357 3 8 14 352 0 5 6 6 353 348 346 340 331 326 325 325 318 315 310 306 300 298 296 294 289 285 282 275 269 263 259 261 261 264 267
Height
1479 1477 1478 1476 1474 1490 1493 1501 1483 1494 1491 1489 1484 1485 1488 1489 1490 1491 1492 1493 1494 1494 1494 1495 1495 1494 1494 1494 1493 1493 1493 1494 1494 1494 1494 1496 1497 1497 1498 1499 1500 1500 1501 1501
1476 1469 1469 1473 1474 1479 1487 1508 1509 1511 1490 1483 1484 1486 1487 1488 1489 1490 1491 1492 1493 1493 1493 1493 1493 1492 1492 1491 1491 1491 1491 1491 1491 1491 1492 1493 1494 1494 1495 1496 1497 1498 1498 1498
1490 1475 1471 1479 1482 1482 1487 1492 1489 1487 1483 1482 1484 1486 1486 1487 1487 1488 1489 1490 1491 1491 1491 1490 1490 1489 1488 1488 1487 1487 1488 1488 1488 1489 1489 1489 1490 1490 1491 1492 1493 1493 1494 1495
1490 1484 1494 1481 1479 1478 1477 1482 1483 1481 1481 1478 1480 1483 1484 1486 1486 1487 1488 1489 1489 1489 1489 1488 1487 1486 1484 1484 1484 1484 1484 1484 1485 1485 1485 1486 1486 1487 1487 1487 1487 1488 1489 1489
1500 1502 1488 1479 1481 1482 1482 1478 1477 1478 1478 1481 1481 1483 1483 1484 1484 1485 1486 1487 1487 1486 1485 1484 1483 1482 1481 1480 1479 1479 1479 1479 1480 1480 1480 1481 1481 1481 1481 1482 1482 1482 1483 1483
1499 1497 1486 1495 1483 1481 1480 1483 1480 1479 1480 1481 1483 1489 1481 1480 1482 1483 1483 1483 1483 1482 1481 1480 1479 1478 1476 1476 1475 1475 1474 1474 1474 1474 1474 1474 1475 1475 1476 1476 1476 1476 1477 1477
1496 1506 1492 1488 1484 1481 1489 1497 1483 1482 1481 1481 1482 1479 1479 1479 1480 1480 1480 1479 1478 1477 1476 1475 1474 1473 1472 1471 1471 1470 1469 1469 1469 1469 1469 1469 1468 1468 1468 1469 1469 1469 1469 1471
1509 1512 1501 1490 1485 1494 1493 1487 1485 1482 1481 1479 1477 1477 1477 1477 1476 1476 1475 1474 1473 1472 1471 1470 1469 1468 1467 1467 1466 1466 1465 1465 1464 1464 1463 1462 1462 1462 1461 1461 1461 1462 1462 1462
1508 1500 1496 1493 1492 1490 1489 1487 1485 1483 1480 1478 1476 1475 1474 1472 1472 1471 1470 1469 1468 1467 1465 1465 1464 1463 1462 1463 1462 1461 1461 1460 1460 1459 1458 1457 1456 1456 1455 1455 1454 1454 1454 1454
1506 1498 1493 1490 1490 1491 1489 1485 1482 1480 1476 1474 1472 1470 1468 1467 1466 1465 1465 1464 1462 1461 1460 1459 1459 1458 1457 1457 1457 1456 1456 1456 1455 1454 1454 1453 1452 1451 1450 1450 1449 1448 1448 1447
1504 1495 1491 1488 1489 1487 1482 1479 1475 1472 1470 1467 1465 1462 1462 1460 1460 1459 1458 1457 1456 1455 1454 1454 1453 1453 1453 1452 1452 1451 1451 1451 1450 1450 1449 1448 1447 1446 1445 1444 1443 1442 1442 1442
1507 1498 1497 1489 1484 1481 1476 1472 1469 1466 1461 1459 1457 1455 1454 1453 1453 1452 1451 1450 1449 1448 1447 1448 1447 1447 1448 1447 1446 1446 1446 1446 1445 1445 1444 1443 1441 1440 1441 1439 1438 1438 1437 1437
1501 1497 1492 1486 1479 1476 1471 1466 1461 1457 1454 1451 1451 1449 1448 1446 1446 1444 1444 1443 1442 1442 1441 1441 1442 1442 1443 1442 1441 1441 1441 1441 1441 1441 1439 1438 1436 1434 1431 1432 1432 1430 1430 1430
1498 1493 1484 1479 1473 1469 1465 1460 1456 1451 1448 1446 1444 1443 1441 1439 1439 1437 1436 1437 1436 1435 1436 1436 1436 1436 1438 1437 1437 1437 1437 1437 1437 1436 1435 1434 1432 1430 1428 1426 1423 1423 1424 1424
1491 1488 1482 1474 1469 1463 1458 1453 1448 1444 1441 1439 1438 1435 1434 1431 1430 1430 1431 1430 1430 1430 1430 1430 1430 1431 1432 1431 1432 1433 1433 1433 1433 1432 1431 1429 1428 1425 1424 1422 1419 1417 1417 1417
1485 1479 1474 1468 1461 1456 1451 1446 1442 1438 1435 1432 1430 1428 1426 1424 1423 1423 1424 1424 1424 1424 1425 1424 1424 1426 1426 1426 1427 1428 1429 1429 1428 1428 1427 1425 1423 1421 1419 1417 1415 1414 1412 1411
1479 1469 1465 1460 1457 1451 1447 1443 1438 1433 1429 1427 1424 1422 1420 1418 1418 1418 1418 1419 1418 1418 1419 1419 1419 1420 1421 1421 1422 1423 1424 1425 1424 1424 1423 1421 1419 1417 1415 1414 1412 1410 1408 1407
1480 1474 1468 1461 1453 1446 1440 1436 1432 1428 1423 1420 1417 1415 1414 1413 1413 1413 1413 1413 1412 1412 1413 1414 1414 1415 1416 1416 1417 1419 1420 1420 1420 1420 1419 1417 1415 1413 1411 1409 1408 1407 1405 1403
1475 1468 1462 1456 1451 1444 1438 1432 1427 1422 1418 1415 1412 1410 1409 1409 1409 1408 1408 1408 1408 1408 1409 1409 1409 1410 1410 1412 1413 1415 1416 1416 1416 1416 1415 1413 1411 1410 1408 1406 1404 1403 1401 1399
1470 1464 1459 1453 1447 1442 1435 1429 1424 1418 1414 1411 1408 1406 1406 1405 1405 1404 1404 1404 1405 1405 1404 1405 1405 1406 1407 1408 1409 1410 1411 1412 1413 1412 1412 1410 1409 1407 1405 1403 1401 1399 1398 1396
1467 1461 1455 1450 1444 1439 1433 1428 1422 1417 1413 1409 1406 1404 1403 1403 1402 1402 1402 1401 1402 1401 1401 1402 1403 1403 1403 1404 1404 1406 1407 1408 1409 1408 1408 1407 1406 1404 1402 1400 1398 1396 1395 1393
1465 1459 1454 1448 1443 1437 1432 1427 1422 1417 1413 1409 1406 1404 1402 1401 1401 1401 1400 1400 1399 1399 1399 1400 1400 1400 1401 1401 1402 1403 1404 1404 1404 1404 1403 1402 1401 1400 1399 1397 1395 1393 1392 1390
1464 1459 1453 1448 1442 1437 1432 1427 1423 1418 1414 1410 1407 1405 1403 1402 1401 1400 1400 1400 1399 1399 1399 1399 1399 1399 1397 1399 1399 1400 1400 1400 1400 1399 1398 1396 1395 1394 1394 1394 1392 1391 1390 1388
1463 1458 1453 1448 1443 1437 1431 1426 1423 1419 1415 1412 1409 1406 1404 1402 1402 1401 1400 1399 1399 1399 1398 1398 1399 1396 1395 1396 1397 1397 1397 1396 1395 1393 1392 1391 1391 1390 1390 1389 1389 1388 1387 1386
1463 1457 1453 1448 1442 1436 1432 1427 1422 1418 1415 1412 1409 1407 1405 1404 1402 1401 1400 1399 1398 1397 1396 1396 1396 1394 1393 1393 1393 1392 1392 1391 1390 1389 1388 1387 1386 1386 1386 1386 1386 1386 1385 1385
1462 1457 1453 1449 1444 1438 1433 1428 1424 1420 1417 1413 1411 1408 1406 1404 1402 1400 1399 1398 1397 1396 1394 1393 1392 1391 1390 1390 1389 1388 1387 1387 1386 1385 1384 1383 1383 1383 1383 1383 1383 1383 1383 1383
1463 1458 1453 1447 1443 1439 1433 1429 1425 1421 1418 1415 1412 1409 1406 1404 1402 1400 1399 1397 1396 1394 1393 1392 1390 1389 1388 1387 1386 1385 1383 1382 1381 1380 1380 1380 1379 1379 1379 1380 1380 1380 1381 1381